Weather History for KBFD - October, 2011

Change the Weather History Date:

Monday, October 17, 2011

  Actual Average Record
Temperature  
Mean Temperature 49 °F 46 °F  
Max Temperature 57 °F 57 °F 74 °F (1968)
Min Temperature 41 °F 35 °F 21 °F (1981)
Degree Days  
Heating Degree Days 16 14  
Month to date heating degree days 206  
Since 1 July heating degree days 623  
Cooling Degree Days 0 0  
Month to date cooling degree days 0  
Year to date cooling degree days 192  
Moisture  
Dew Point 32 °F    
Average Humidity 63    
Maximum Humidity 89    
Minimum Humidity 24    
Precipitation  
Precipitation 0.01 in 0.10 in 1.19 in (2006)
Month to date precipitation 1.96  
Year to date precipitation 35.83  
Sea Level Pressure  
Sea Level Pressure 29.74 in    
Wind  
Wind Speed 9 mph (WSW)    
Max Wind Speed 17 mph    
Max Gust Speed 28 mph    
Visibility 10 miles    
Events Rain    
T = Trace of Precipitation, MM = Missing Value Source: NWS Daily Summary

Daily Weather History Graph

Daily Weather History Graph

Search for Another Location

Airport or City:

Trip Planner

Search our weather history database for the weather conditions in past years. The results will help you decide how hot, cold, wet, or windy it might be!

Date:

Astronomy

Oct. 17, 2011 Rise Set
Actual Time 7:28 AM EDT 6:30 PM EDT
Civil Twilight 7:00 AM EDT 6:58 PM EDT
Nautical Twilight 6:28 AM EDT 7:30 PM EDT
Astronomical Twilight 5:56 AM EDT 8:02 PM EDT
Moon 10:05 PM EDT (10/17) 12:37 PM EDT (10/17)
Length of Visible Light 11h 57m
Length of Day
11h 01m
Waning Gibbous, 74% of the Moon is Illuminated
Oct 17
Waning Gibbous
Oct 19
Last Quarter
Oct 26
New
Nov 2
First Quarter
Nov 10
Full

Hourly Weather History & Observations

Time (EDT) Temp. Windchill Dew Point Humidity Pressure Visibility Wind Dir Wind Speed Gust Speed Precip Events Conditions
12:12 AM 46.4 °F 40.4 °F 42.8 °F 87% 29.70 in 10.0 mi West 13.8 mph 19.6 mph 0.01 in   Mostly Cloudy
12:53 AM 46.0 °F 41.0 °F 42.1 °F 86% 29.72 in 10.0 mi WNW 10.4 mph 19.6 mph 0.01 in   Scattered Clouds
1:53 AM 44.1 °F 42.5 °F 41.0 °F 89% 29.73 in 10.0 mi West 3.5 mph - N/A   Partly Cloudy
2:53 AM 43.0 °F 40.3 °F 39.0 °F 86% 29.73 in 10.0 mi WSW 4.6 mph - N/A   Clear
3:53 AM 42.1 °F 38.4 °F 37.9 °F 85% 29.73 in 10.0 mi SSW 5.8 mph - N/A   Scattered Clouds
4:53 AM 43.0 °F 38.8 °F 37.9 °F 82% 29.75 in 10.0 mi WSW 6.9 mph - N/A   Mostly Cloudy
5:35 AM 42.8 °F 38.6 °F 39.2 °F 87% 29.73 in 10.0 mi Variable 6.9 mph - N/A   Mostly Cloudy
5:53 AM 42.8 °F 38.0 °F 39.2 °F 87% 29.73 in 10.0 mi WSW 8.1 mph 17.3 mph N/A Rain Light Rain
6:38 AM 42.8 °F 38.0 °F 39.2 °F 87% 29.74 in 10.0 mi WSW 8.1 mph 16.1 mph 0.00 in   Overcast
6:53 AM 43.0 °F 38.8 °F 39.0 °F 86% 29.75 in 10.0 mi Variable 6.9 mph - 0.00 in   Overcast
7:42 AM 42.8 °F 38.0 °F 37.4 °F 81% 29.73 in 10.0 mi WSW 8.1 mph 18.4 mph N/A   Mostly Cloudy
7:53 AM 42.1 °F 36.6 °F 37.9 °F 85% 29.75 in 10.0 mi WSW 9.2 mph 16.1 mph N/A   Mostly Cloudy
8:04 AM 41.0 °F 37.1 °F 37.4 °F 87% 29.73 in 10.0 mi WSW 5.8 mph - N/A   Scattered Clouds
8:21 AM 41.0 °F 34.3 °F 37.4 °F 87% 29.74 in 10.0 mi WSW 11.5 mph 19.6 mph N/A   Mostly Cloudy
8:32 AM 41.0 °F 34.7 °F 37.4 °F 87% 29.74 in 10.0 mi WSW 10.4 mph 18.4 mph N/A   Scattered Clouds
8:43 AM 42.8 °F 36.6 °F 37.4 °F 81% 29.74 in 10.0 mi WSW 11.5 mph 19.6 mph N/A   Scattered Clouds
8:53 AM 42.1 °F 37.1 °F 37.0 °F 82% 29.76 in 10.0 mi WSW 8.1 mph 19.6 mph N/A   Scattered Clouds
9:53 AM 45.0 °F 39.7 °F 37.0 °F 74% 29.75 in 10.0 mi WSW 10.4 mph 21.9 mph N/A   Clear
10:53 AM 46.9 °F - 34.0 °F 61% 29.75 in 10.0 mi West 9.2 mph 23.0 mph N/A   Clear
11:53 AM 50.0 °F - 32.0 °F 50% 29.74 in 10.0 mi WSW 9.2 mph 20.7 mph N/A   Clear
12:53 PM 52.0 °F - 28.9 °F 41% 29.72 in 10.0 mi WSW 15.0 mph 24.2 mph N/A   Clear
1:53 PM 54.0 °F - 27.0 °F 35% 29.71 in 10.0 mi WSW 13.8 mph 26.5 mph N/A   Clear
2:53 PM 55.9 °F - 23.0 °F 28% 29.69 in 10.0 mi West 13.8 mph 27.6 mph N/A   Clear
3:53 PM 55.9 °F - 23.0 °F 28% 29.69 in 10.0 mi SW 12.7 mph 26.5 mph N/A   Clear
4:53 PM 57.0 °F - 19.9 °F 24% 29.70 in 10.0 mi West 17.3 mph 24.2 mph N/A   Clear
5:53 PM 55.0 °F - 19.9 °F 25% 29.71 in 10.0 mi WSW 9.2 mph 19.6 mph N/A   Clear
6:53 PM 53.1 °F - 19.9 °F 27% 29.73 in 10.0 mi West 6.9 mph - N/A   Clear
7:53 PM 51.8 °F - 19.4 °F 28% 29.74 in 10.0 mi Variable 3.5 mph - N/A   Clear
8:53 PM 50.0 °F - 21.9 °F 33% 29.77 in 10.0 mi WSW 8.1 mph - N/A   Clear
9:53 PM 48.9 °F - 23.0 °F 36% 29.78 in 10.0 mi Variable 3.5 mph - N/A   Clear
10:53 PM 48.0 °F - 24.1 °F 39% 29.79 in 10.0 mi WSW 6.9 mph - N/A   Clear
11:53 PM 48.0 °F - 24.1 °F 39% 29.79 in 10.0 mi West 8.1 mph - N/A   Clear